Time,TemperatureF,DewpointF,PressureIn,WindDirection,WindDirectionDegrees,WindSpeedMPH,WindSpeedGustMPH,Humidity,HourlyPrecipIn,Conditions,Clouds,dailyrainin,SoftwareType,DateUTC
2013-10-09 00:00:00,57.4,49.9,30.21,North,0,1.3,1.3,76,0.00,,,0.00,WUHU216HW,2013-10-09 04:00:00,
2013-10-09 00:01:00,57.4,49.9,30.21,North,0,1.3,1.3,76,0.00,,,0.00,WUHU216HW,2013-10-09 04:01:00,
2013-10-09 00:06:00,57.4,49.9,30.21,North,0,1.3,1.3,76,0.00,,,0.00,WUHU216HW,2013-10-09 04:06:00,
2013-10-09 00:30:00,57.2,49.7,30.20,North,0,0.4,0.4,76,0.00,,,0.00,WUHU216HW,2013-10-09 04:30:00,
2013-10-09 00:35:00,57.2,49.7,30.20,North,0,0.4,0.4,76,0.00,,,0.00,WUHU216HW,2013-10-09 04:35:00,
2013-10-09 01:00:00,57.2,50.0,30.19,NNE,23,1.8,1.8,77,0.00,,,0.00,WUHU216HW,2013-10-09 05:00:00,
2013-10-09 01:05:00,57.2,50.0,30.19,NNE,23,1.8,1.8,77,0.00,,,0.00,WUHU216HW,2013-10-09 05:05:00,
2013-10-09 01:30:00,57.1,49.9,30.20,East,90,0.4,0.4,77,0.00,,,0.00,WUHU216HW,2013-10-09 05:30:00,
2013-10-09 01:35:00,57.1,49.9,30.20,East,90,0.4,0.4,77,0.00,,,0.00,WUHU216HW,2013-10-09 05:35:00,
2013-10-09 02:00:00,57.2,50.4,30.19,NNE,23,1.1,1.1,78,0.00,,,0.00,WUHU216HW,2013-10-09 06:00:00,
2013-10-09 02:04:00,57.2,50.4,30.19,NNE,23,1.1,1.1,78,0.00,,,0.00,WUHU216HW,2013-10-09 06:04:00,
2013-10-09 02:30:00,57.1,50.2,30.19,NE,45,0.4,0.4,78,0.00,,,0.00,WUHU216HW,2013-10-09 06:30:00,
2013-10-09 02:35:00,57.1,50.2,30.19,NE,45,0.4,0.4,78,0.00,,,0.00,WUHU216HW,2013-10-09 06:35:00,
2013-10-09 03:00:00,56.9,50.0,30.18,ESE,113,1.3,1.3,78,0.00,,,0.00,WUHU216HW,2013-10-09 07:00:00,
2013-10-09 03:05:00,56.9,50.0,30.18,ESE,113,1.3,1.3,78,0.00,,,0.00,WUHU216HW,2013-10-09 07:05:00,
2013-10-09 03:30:00,56.9,50.4,30.18,NNE,23,0.4,0.4,79,0.00,,,0.00,WUHU216HW,2013-10-09 07:30:00,
2013-10-09 03:35:00,56.9,50.4,30.18,NNE,23,0.4,0.4,79,0.00,,,0.00,WUHU216HW,2013-10-09 07:35:00,
2013-10-09 04:00:00,56.5,50.0,30.16,North,0,0.7,0.7,79,0.00,,,0.00,WUHU216HW,2013-10-09 08:00:00,
2013-10-09 04:05:00,56.5,50.0,30.16,North,0,0.7,0.7,79,0.00,,,0.00,WUHU216HW,2013-10-09 08:05:00,
2013-10-09 04:30:00,56.0,49.5,30.16,West,270,1.6,1.6,79,0.00,,,0.00,WUHU216HW,2013-10-09 08:30:00,
2013-10-09 04:35:00,56.0,49.5,30.16,West,270,1.6,1.6,79,0.00,,,0.00,WUHU216HW,2013-10-09 08:35:00,
2013-10-09 05:00:00,55.8,49.7,30.16,NNE,23,1.1,1.1,80,0.00,,,0.00,WUHU216HW,2013-10-09 09:00:00,
2013-10-09 05:05:00,55.8,49.7,30.16,NNE,23,1.1,1.1,80,0.00,,,0.00,WUHU216HW,2013-10-09 09:05:00,
2013-10-09 05:30:00,55.8,49.7,30.16,NNE,23,1.1,1.1,80,0.00,,,0.00,WUHU216HW,2013-10-09 09:30:00,
2013-10-09 05:35:00,55.8,49.7,30.16,NNE,23,1.1,1.1,80,0.00,,,0.00,WUHU216HW,2013-10-09 09:35:00,
2013-10-09 06:00:00,55.8,49.7,30.18,North,0,0.9,0.9,80,0.00,,,0.00,WUHU216HW,2013-10-09 10:00:00,
2013-10-09 06:05:00,55.8,49.7,30.18,North,0,0.9,0.9,80,0.00,,,0.00,WUHU216HW,2013-10-09 10:05:00,
2013-10-09 06:30:00,55.8,49.7,30.17,NNE,23,1.1,1.1,80,0.00,,,0.00,WUHU216HW,2013-10-09 10:30:00,
2013-10-09 06:35:00,55.8,49.7,30.17,NNE,23,1.1,1.1,80,0.00,,,0.00,WUHU216HW,2013-10-09 10:35:00,
2013-10-09 06:59:00,55.8,49.7,30.17,WSW,248,0.7,0.7,80,0.00,,,0.00,WUHU216HW,2013-10-09 10:59:00,
2013-10-09 07:00:00,55.8,49.7,30.17,WSW,248,0.7,0.7,80,0.00,,,0.00,WUHU216HW,2013-10-09 11:00:00,
2013-10-09 07:05:00,55.8,49.7,30.17,WSW,248,0.7,0.7,80,0.00,,,0.00,WUHU216HW,2013-10-09 11:05:00,
2013-10-09 07:30:00,55.8,50.1,30.18,NNE,23,0.7,0.7,81,0.00,,,0.00,WUHU216HW,2013-10-09 11:30:00,
2013-10-09 07:35:00,55.8,50.1,30.18,NNE,23,0.7,0.7,81,0.00,,,0.00,WUHU216HW,2013-10-09 11:35:00,
2013-10-09 07:59:00,56.0,50.2,30.18,North,0,0.9,0.9,81,0.00,,,0.00,WUHU216HW,2013-10-09 11:59:00,
2013-10-09 08:00:00,56.0,50.2,30.18,North,0,0.9,0.9,81,0.00,,,0.00,WUHU216HW,2013-10-09 12:00:00,
2013-10-09 08:03:00,56.0,50.2,30.18,North,0,0.9,0.9,81,0.00,,,0.00,WUHU216HW,2013-10-09 12:03:00,
2013-10-09 08:08:00,56.0,50.2,30.18,North,0,0.9,0.9,81,0.00,,,0.00,WUHU216HW,2013-10-09 12:08:00,
2013-10-09 08:30:00,55.6,50.1,30.19,North,0,1.6,1.6,82,0.01,,,0.00,WUHU216HW,2013-10-09 12:30:00,
2013-10-09 08:35:00,55.6,50.1,30.19,North,0,1.6,1.6,82,0.01,,,0.00,WUHU216HW,2013-10-09 12:35:00,
2013-10-09 08:59:00,55.8,50.9,30.19,NNE,23,1.8,1.8,84,0.01,,,0.02,WUHU216HW,2013-10-09 12:59:00,
2013-10-09 09:00:00,55.8,50.9,30.19,NNE,23,1.8,1.8,84,0.01,,,0.02,WUHU216HW,2013-10-09 13:00:00,
2013-10-09 09:05:00,55.8,50.9,30.19,NNE,23,1.8,1.8,84,0.01,,,0.02,WUHU216HW,2013-10-09 13:05:00,
2013-10-09 09:30:00,56.2,51.3,30.19,NNE,23,2.5,2.5,84,0.00,,,0.02,WUHU216HW,2013-10-09 13:30:00,
2013-10-09 09:35:00,56.2,51.3,30.19,NNE,23,2.5,2.5,84,0.00,,,0.02,WUHU216HW,2013-10-09 13:35:00,
2013-10-09 10:00:00,56.9,52.4,30.20,SE,135,3.1,3.1,85,0.00,,,0.02,WUHU216HW,2013-10-09 14:00:00,
2013-10-09 10:05:00,56.9,52.4,30.20,SE,135,3.1,3.1,85,0.00,,,0.02,WUHU216HW,2013-10-09 14:05:00,
2013-10-09 10:30:00,58.3,53.2,30.20,NW,315,1.1,1.1,83,0.00,,,0.02,WUHU216HW,2013-10-09 14:30:00,
2013-10-09 10:35:00,58.3,53.2,30.20,NW,315,1.1,1.1,83,0.00,,,0.02,WUHU216HW,2013-10-09 14:35:00,
2013-10-09 11:00:00,59.8,54.0,30.19,North,0,2.5,2.5,81,0.00,,,0.02,WUHU216HW,2013-10-09 15:00:00,
2013-10-09 11:05:00,59.8,54.0,30.19,North,0,2.5,2.5,81,0.00,,,0.02,WUHU216HW,2013-10-09 15:05:00,
2013-10-09 11:30:00,59.4,53.3,30.20,NNE,23,0.7,0.7,80,0.00,,,0.02,WUHU216HW,2013-10-09 15:30:00,
2013-10-09 11:35:00,59.4,53.3,30.20,NNE,23,0.7,0.7,80,0.00,,,0.02,WUHU216HW,2013-10-09 15:35:00,
2013-10-09 11:59:00,60.1,54.0,30.20,NNE,23,1.1,1.1,80,0.00,,,0.02,WUHU216HW,2013-10-09 15:59:00,
2013-10-09 12:00:00,60.1,54.0,30.20,NNE,23,1.1,1.1,80,0.00,,,0.02,WUHU216HW,2013-10-09 16:00:00,
2013-10-09 12:05:00,60.1,54.0,30.20,NNE,23,1.1,1.1,80,0.00,,,0.02,WUHU216HW,2013-10-09 16:05:00,
2013-10-09 12:30:00,60.3,54.6,30.19,North,0,0.7,0.7,81,0.00,,,0.02,WUHU216HW,2013-10-09 16:30:00,
2013-10-09 12:35:00,60.3,54.6,30.19,North,0,0.7,0.7,81,0.00,,,0.02,WUHU216HW,2013-10-09 16:35:00,
2013-10-09 12:59:00,60.5,54.7,30.18,NE,45,2.0,2.0,81,0.00,,,0.02,WUHU216HW,2013-10-09 16:59:00,
2013-10-09 13:00:00,60.5,54.7,30.18,NE,45,2.0,2.0,81,0.00,,,0.02,WUHU216HW,2013-10-09 17:00:00,
2013-10-09 13:05:00,60.5,54.7,30.18,NE,45,2.0,2.0,81,0.00,,,0.02,WUHU216HW,2013-10-09 17:05:00,
2013-10-09 13:30:00,61.0,54.9,30.17,NNW,338,1.1,1.1,80,0.00,,,0.02,WUHU216HW,2013-10-09 17:30:00,
2013-10-09 13:35:00,61.0,54.9,30.17,NNW,338,1.1,1.1,80,0.00,,,0.02,WUHU216HW,2013-10-09 17:35:00,
2013-10-09 13:59:00,61.2,55.1,30.17,NNE,23,2.0,2.0,80,0.00,,,0.02,WUHU216HW,2013-10-09 17:59:00,
2013-10-09 14:00:00,61.2,55.1,30.17,NNE,23,2.0,2.0,80,0.00,,,0.02,WUHU216HW,2013-10-09 18:00:00,
2013-10-09 14:05:00,61.2,55.1,30.17,NNE,23,2.0,2.0,80,0.00,,,0.02,WUHU216HW,2013-10-09 18:05:00,
2013-10-09 14:30:00,61.9,55.4,30.16,North,0,0.7,0.7,79,0.00,,,0.02,WUHU216HW,2013-10-09 18:30:00,
2013-10-09 14:35:00,61.9,55.4,30.16,North,0,0.7,0.7,79,0.00,,,0.02,WUHU216HW,2013-10-09 18:35:00,
2013-10-09 14:59:00,61.7,54.8,30.16,NNE,23,1.8,1.8,78,0.00,,,0.02,WUHU216HW,2013-10-09 18:59:00,
2013-10-09 15:00:00,61.7,54.8,30.16,NNE,23,1.8,1.8,78,0.00,,,0.02,WUHU216HW,2013-10-09 19:00:00,
2013-10-09 15:05:00,61.7,54.8,30.16,NNE,23,1.8,1.8,78,0.00,,,0.02,WUHU216HW,2013-10-09 19:05:00,
2013-10-09 15:30:00,61.6,55.0,30.16,NE,45,0.9,0.9,79,0.00,,,0.02,WUHU216HW,2013-10-09 19:30:00,
2013-10-09 15:35:00,61.6,55.0,30.16,NE,45,0.9,0.9,79,0.00,,,0.02,WUHU216HW,2013-10-09 19:35:00,
2013-10-09 15:59:00,59.6,54.5,30.17,NNE,23,0.2,0.2,83,0.00,,,0.02,WUHU216HW,2013-10-09 19:59:00,
2013-10-09 16:00:00,59.6,54.5,30.17,NNE,23,0.2,0.2,83,0.00,,,0.02,WUHU216HW,2013-10-09 20:00:00,
2013-10-09 16:05:00,59.6,54.5,30.17,NNE,23,0.2,0.2,83,0.00,,,0.02,WUHU216HW,2013-10-09 20:05:00,
2013-10-09 16:30:00,59.2,54.1,30.15,North,0,0.7,0.7,83,0.00,,,0.02,WUHU216HW,2013-10-09 20:30:00,
2013-10-09 16:35:00,59.2,54.1,30.15,North,0,0.7,0.7,83,0.00,,,0.02,WUHU216HW,2013-10-09 20:35:00,
2013-10-09 17:00:00,59.4,54.3,30.14,NNE,23,1.8,1.8,83,0.00,,,0.02,WUHU216HW,2013-10-09 21:00:00,
2013-10-09 17:05:00,59.4,54.3,30.14,NNE,23,1.8,1.8,83,0.00,,,0.02,WUHU216HW,2013-10-09 21:05:00,
2013-10-09 17:30:00,59.8,54.3,30.14,North,0,1.1,1.1,82,0.00,,,0.02,WUHU216HW,2013-10-09 21:30:00,
2013-10-09 17:35:00,59.8,54.3,30.14,North,0,1.1,1.1,82,0.00,,,0.02,WUHU216HW,2013-10-09 21:35:00,
2013-10-09 18:00:00,59.4,53.9,30.15,WSW,248,1.1,1.1,82,0.00,,,0.02,WUHU216HW,2013-10-09 22:00:00,
2013-10-09 18:05:00,59.4,53.9,30.15,WSW,248,1.1,1.1,82,0.00,,,0.02,WUHU216HW,2013-10-09 22:05:00,
2013-10-09 18:30:00,59.0,53.9,30.14,NNE,23,1.1,1.1,83,0.00,,,0.02,WUHU216HW,2013-10-09 22:30:00,
2013-10-09 18:35:00,59.0,53.9,30.14,NNE,23,1.1,1.1,83,0.00,,,0.02,WUHU216HW,2013-10-09 22:35:00,
2013-10-09 19:00:00,58.7,53.6,30.14,NNW,338,1.8,1.8,83,0.00,,,0.02,WUHU216HW,2013-10-09 23:00:00,
2013-10-09 19:05:00,58.7,53.6,30.14,NNW,338,1.8,1.8,83,0.00,,,0.02,WUHU216HW,2013-10-09 23:05:00,
2013-10-09 19:30:00,58.3,53.2,30.15,NNW,338,0.7,0.7,83,0.00,,,0.02,WUHU216HW,2013-10-09 23:30:00,
2013-10-09 19:35:00,58.3,53.2,30.15,NNW,338,0.7,0.7,83,0.00,,,0.02,WUHU216HW,2013-10-09 23:35:00,
2013-10-09 19:59:00,57.6,53.1,30.15,NNW,338,1.6,1.6,85,0.00,,,0.02,WUHU216HW,2013-10-09 23:59:00,
2013-10-09 20:00:00,57.6,53.1,30.15,NNW,338,1.6,1.6,85,0.00,,,0.02,WUHU216HW,2013-10-10 00:00:00,
2013-10-09 20:05:00,57.6,53.1,30.15,NNW,338,1.6,1.6,85,0.00,,,0.02,WUHU216HW,2013-10-10 00:05:00,
2013-10-09 20:30:00,57.2,52.7,30.15,NNE,23,0.4,0.4,85,0.00,,,0.02,WUHU216HW,2013-10-10 00:30:00,
2013-10-09 20:35:00,57.2,52.7,30.15,NNE,23,0.4,0.4,85,0.00,,,0.02,WUHU216HW,2013-10-10 00:35:00,
2013-10-09 20:59:00,56.9,52.8,30.14,NNE,23,1.6,1.6,86,0.00,,,0.02,WUHU216HW,2013-10-10 00:59:00,
2013-10-09 21:00:00,56.9,52.8,30.14,NNE,23,1.6,1.6,86,0.00,,,0.02,WUHU216HW,2013-10-10 01:00:00,
2013-10-09 21:05:00,56.9,52.8,30.14,NNE,23,1.6,1.6,86,0.00,,,0.02,WUHU216HW,2013-10-10 01:05:00,
2013-10-09 21:30:00,56.0,52.5,30.13,NE,45,1.6,1.6,88,0.01,,,0.02,WUHU216HW,2013-10-10 01:30:00,
2013-10-09 21:35:00,56.0,52.5,30.13,NE,45,1.6,1.6,88,0.01,,,0.02,WUHU216HW,2013-10-10 01:35:00,
2013-10-09 21:59:00,55.8,52.3,30.13,NE,45,2.0,2.0,88,0.01,,,0.03,WUHU216HW,2013-10-10 01:59:00,
2013-10-09 22:00:00,55.8,52.3,30.13,NE,45,2.0,2.0,88,0.01,,,0.03,WUHU216HW,2013-10-10 02:00:00,
2013-10-09 22:05:00,55.8,52.3,30.13,NE,45,2.0,2.0,88,0.01,,,0.03,WUHU216HW,2013-10-10 02:05:00,
2013-10-09 22:30:00,55.1,51.8,30.13,North,0,1.1,1.1,89,0.06,,,0.03,WUHU216HW,2013-10-10 02:30:00,
2013-10-09 22:35:00,55.1,51.8,30.13,North,0,1.1,1.1,89,0.06,,,0.03,WUHU216HW,2013-10-10 02:35:00,
2013-10-09 22:59:00,54.7,51.8,30.12,NNW,338,0.4,0.4,90,0.11,,,0.09,WUHU216HW,2013-10-10 02:59:00,
2013-10-09 23:00:00,54.7,51.8,30.12,NNW,338,0.4,0.4,90,0.11,,,0.09,WUHU216HW,2013-10-10 03:00:00,
2013-10-09 23:05:00,54.7,51.8,30.12,NNW,338,0.4,0.4,90,0.11,,,0.09,WUHU216HW,2013-10-10 03:05:00,
2013-10-09 23:30:00,54.4,51.8,30.11,NNW,338,1.1,1.1,91,0.06,,,0.14,WUHU216HW,2013-10-10 03:30:00,
2013-10-09 23:35:00,54.4,51.8,30.11,NNW,338,1.1,1.1,91,0.06,,,0.14,WUHU216HW,2013-10-10 03:35:00,
2013-10-09 23:59:00,54.2,51.6,30.11,NNE,23,1.1,1.1,91,0.01,,,0.15,WUHU216HW,2013-10-10 03:59:00,